www.pogodaiklimat.ru

Погода и климат >> Архив погоды >> Мексика >> Chetumal


ПОГОДА в Chetumal

  • Прогноз погоды в Chetumal
  • Монитор погоды в Chetumal
  • Климат города

АРХИВ ПОГОДЫ в Chetumal

Время (UTC), дата Ветер
(напр.,м/с)
 
Видим.   Явления Облачность Т
(С)
Тd
(С)
f
(%)
Тe
(С)
Тes
(С)
Комфортность P
(гПа)
Po
(гПа)
Тmin
(С)
Tmax
(С)
R
(мм)
R24
(мм)
S
(см)
06 8.12 С 1 8000 м в посл. час дождь 8/5 600 м
[Sc Cs]
+23.1 +23.0 99 +32 +32 очень
душно
1017.8 1016.8 0.9
12 8.12 С 2 10 км 3/3 600 м
[Sc diur, vesp]
+22.7 +22.4 98 +31 +31 очень
душно
1016.6 1015.6 +21.3 +29.2
15 8.12 С 2 10 км {морось} 4/4 600 м
[Sc diur, vesp]
+26.3 +25.6 96 +39 +42 очень
душно
1018.3 1017.3 0.2
18 8.12 ЮВ 3 10 км {морось} 10/10 600 м
[Sc diur, vesp]
+30.1 +25.1 75 +44 +44 опасность
перегрева
1017.1 1016.1 0.2
21 8.12 В 2 10 км 10/10 600 м
[Sc diur, vesp]
+30.6 +25.2 73 +44 +44 опасность
перегрева
1015.1 1014.1
00 9.12 В 1 8000 м 1/1 600 м
[Sc diur, vesp]
+26.2 +24.8 92 +37 +37 очень
душно
1015.1 1014.1 +21.3 +30.6
03 9.12 ЮВ 3 8000 м ясно +26.8 +23.8 84 +37 +37 очень
душно
1016.3 1015.3
12 9.12 СЗ 1 10 км 3/3 600 м
[Cu med, cong]
+22.3 +22.0 98 +30 +30 очень
душно
1016.4 1015.4 +21.0 +30.6
15 9.12 С 2 10 км ясно +27.0 +24.3 85 +38 +44 очень
душно
1018.4 1017.4
18 9.12 ЮВ 3 10 км 1/1 600 м
[Cu hum]
+31.0 +23.6 65 +42 +51 опасность
перегрева
1016.9 1015.9 +21.0 +31.3
21 9.12 ЮВ 3 10 км 1/1 600 м
[Cu hum]
+31.5 +23.0 61 +42 +45 опасность
перегрева
1014.9 1013.9
00 10.12 В 1 8000 м 3/1 600 м
[Cu hum Ci fib]
+27.3 +24.4 84 +38 +38 очень
душно
1015.6 1014.6 +21.0 +31.8
03 10.12 В 2 8000 м 1/1 600 м
[Cu hum]
+24.6 +23.2 92 +33 +33 очень
душно
1017.2 1016.2
06 10.12 СЗ 2 8000 м 3/3 600 м
[Sc diur, vesp]
+22.8 +22.4 98 +31 +31 очень
душно
1017.9 1016.9 +31.8
09 10.12 С 2 8000 м 5/5 600 м
[Sc diur, vesp]
+22.7 +21.9 95 +30 +30 очень
душно
1017.5 1016.5
12 10.12 С 2 10 км 3/3 600 м
[Sc diur, vesp]
+21.7 +21.0 96 +28 +28 душно 1018.6 1017.6 +20.3 +31.8
15 10.12 С 2 10 км 10/9 600 м
[Sc diur, vesp Ac trans]
+24.4 +21.1 82 +31 +31 очень
душно
1021.0 1020.0
18 10.12 С 2 10 км 10/8 600 м
[Sc diur, vesp Ac trans]
+26.0 +21.0 74 +33 +34 очень
душно
1020.3 1019.3 +20.3 +26.8
21 10.12 С 2 10 км 10/10 600 м
[Sc diur, vesp]
+25.0 +21.0 78 +31 +31 очень
душно
1019.1 1018.1
00 11.12 С 2 8000 м 10/10 600 м
[Sc diur, vesp]
+23.2 +19.7 81 +30 +30 очень
душно
1020.3 1019.3 +20.3 +26.8
03 11.12 С 2 8000 м 3/1 600 м
[Sc diur, vesp Ac trans]
+21.4 +18.7 85 +26 +26 душно 1022.5 1021.5
06 11.12 С 2 8000 м 1/1 600 м
[Sc diur, vesp]
+19.6 +17.5 88 +23 +23 комфорт 1022.9 1021.9 +26.8
09 11.12 СЗ 2 8000 м 4/3 600 м
[Sc diur, vesp]
+18.4 +17.2 93 +20 +20 1022.4 1021.4
12 11.12 С 2 10 км 6/6 600 м
[Sc diur, vesp]
+18.4 +16.2 87 +20 +20 1023.4 1022.4 +17.0 +26.8
15 11.12 С 3 10 км 8/3 600 м
[Sc diur, vesp Ac trans]
+21.6 +16.4 72 +25 +27 комфорт 1025.7 1024.7
18 11.12 С 3 10 км 8/4 600 м
[Sc diur, vesp Ac trans]
+24.7 +17.0 62 +28 +32 душно 1023.9 1022.9 +17.0 +25.1
21 11.12 С 3 10 км 6/6 600 м
[Sc diur, vesp]
+25.6 +17.2 60 +30 +31 душно 1021.9 1020.9
00 12.12 С 1 8000 м 3/1 600 м
[Sc diur, vesp Ac trans]
+22.0 +17.1 74 +26 +26 душно 1022.6 1021.6 +17.0 +27.0
03 12.12 С 1 8000 м 3/1 600 м
[Sc diur, vesp Ac trans]
+19.0 +16.5 85 +22 +22 комфорт 1023.6 1022.6
12 12.12 С 1 10 км 5/3 600 м
[Sc diur, vesp Ac trans]
+15.4 +14.3 93 +16 +16 1021.0 1020.0 +13.9 +27.0
15 12.12 С 3 10 км 1/1 600 м
[Sc diur, vesp]
+20.4 +15.0 71 +23 +28 комфорт 1021.6 1020.6
18 12.12 С 2 10 км 1/1 600 м
[Cu hum]
+27.2 +19.5 63 +33 +44 очень
душно
1019.8 1018.8 +13.7 +27.9
21 12.12 СВ 2 10 км 1/1 600 м
[Sc diur, vesp]
+28.6 +20.3 61 +35 +40 очень
душно
1017.1 1016.1
00 13.12 СВ 2 8000 м 8/3 600 м
[Sc diur, vesp Cs]
+24.9 +20.4 76 +31 +31 очень
душно
1017.3 1016.3 +13.7 +29.2
03 13.12 СВ 2 8000 м 6/6 600 м
[Sc diur, vesp]
+23.7 +22.3 92 +31 +31 очень
душно
1017.7 1016.7
06 13.12 С 1 10 км 9/9 600 м
[Sc diur, vesp]
+23.2 +21.5 90 +31 +31 очень
душно
1016.2 1015.2 +29.2
09 13.12 СЗ 1 8000 м 10/10 600 м
[Sc diur, vesp]
+22.2 +21.3 95 +29 +29 очень
душно
1014.8 1013.8 0.1
12 13.12 С 1 10 км слабая морось 9/9 600 м
[Frnb]
+22.1 +21.8 98 +29 +29 очень
душно
1015.1 1014.1 1
15 13.12 ЮВ 2 10 км 5/4 600 м
[Sc diur, vesp Ci fib]
+26.5 +24.3 88 +37 +40 очень
душно
1016.4 1015.4 0.1
18 13.12 ЮВ 3 10 км 3/1 600 м
[Sc diur, vesp Ci fib]
+29.5 +24.1 73 +41 +50 опасность
перегрева
1014.2 1013.2 0.1
21 13.12 ЮВ 5 10 км ясно +28.9 +23.7 74 +40 +42 очень
душно
1012.0 1011.0
00 14.12 ЮВ 3 8000 м ясно +26.2 +23.4 85 +36 +36 очень
душно
1012.2 1011.2 +20.6 +30.4
03 14.12 ЮВ 3 8000 м ясно +25.6 +24.7 95 +36 +36 очень
душно
1013.0 1012.0
12 14.12 СЗ 1 8000 м 1/1 600 м
[Cu hum]
+21.6 +20.0 91 +27 +27 душно 1013.0 1012.0 +20.1 +30.4
15 14.12 ЮВ 4 10 км 9/0
[Ci]
+27.6 +24.6 84 +39 +42 очень
душно
1014.4 1013.4
18 14.12 В 3 10 км 8/4 600 м
[Sc diur, vesp Ci]
+31.2 +25.2 70 +45 +50 опасность
перегрева
1014.3 1013.3 +20.1 +31.2
21 14.12 В 3 10 км 4/1 600 м
[Sc diur, vesp Ci fib]
+31.2 +24.6 68 +44 +47 опасность
перегрева
1012.3 1011.3
00 15.12 В 1 10 км 5/1 600 м
[Cu hum Ci fib]
+26.9 +23.7 83 +37 +37 очень
душно
1013.4 1012.4 +20.1 +31.9

 

Местоположение метеостанции Chetumal (Мексика): широта 18.48 долгота -88.30 высота над уровнем моря 7 м.

В архиве по умолчанию представлена погода в Chetumal за последнюю неделю. Архивные данные за месяц целиком и за предыдущие месяцы, начиная с января 2011 года, Вы можете получить, выбрав интересующий диапазон дат из раскрывающегося списка и нажав кнопку "Ввод!".


*Определитесь, кто Вы:
робот инопланетянин человек

Внимание! Время в таблицах - всемирное. Для получения местного времени необходимо прибавить поправку, которая в Chetumal равна -6 ч.

Смотрите также архив погоды в соседних городах и на ближайших метеорологических станциях:

Погода в Belize (Белиз) (106 км)
Погода в Felipe Carrillo Puerto (Мексика) (142 км)
Погода в Flores (Гватемала) (241 км)
Погода в Valladolid (Мексика) (245 км)
Погода в Campeche (Мексика) (281 км)
Погода в Roatan (Гондурас) (306 км)
Погода в Puerto Barrios (Гватемала) (309 км)
Погода в Merida (Мексика) (312 км)
Погода в Merida 2 (Мексика) (316 км)
Погода в Tela (Гондурас) (319 км)

Пояснения к столбцам:

Ветер - указаны скорость ветра в м/с - средняя за 10 мин, порывы в срок и между сроками (в фигурных скобках) и направление, откуда дует ветер: С - северный, СВ - северо-восточный, В - восточный, ЮВ - юго-восточный, Ю - южный, ЮЗ - юго-западный, З - западный, СЗ - северо-западный.
Видимость - горизонтальная дальность видимости в метрах или километрах. При видимости от 1 до 10 км при отсутствии осадков обычно наблюдается дымка, при ухудшении видимости до 1 км и менее - туман. В сухую погоду видимость может ухудшаться дымом, пылью или мглою.
Явления - указаны атмосферные явления, наблюдавшиеся в срок или в последний час перед сроком; фигурными скобками обозначены явления, наблюдавшиеся между сроками (за 1-3 часа до срока); квадратными скобками обозначены град или гололедные отложения с указанием их диаметра в мм.
Облачность - указаны через наклонную черту общая и нижняя облачность в баллах и высота нижней границы облаков в метрах; квадратными скобками обозначены формы облаков: Ci - перистые, Cs - перисто-слоистые, Cc - перисто-кучевые, Ac - высококучевые, As - высокослоистые, Sc - слоисто-кучевые, Ns - слоисто-дождевые, Cu - кучевые, Cb - кучево-дождевые. Подробнее классификацию облаков см. в Атласе облаков (PDF).
T - Температура воздуха - температура, измеренная на высоте 2 м над землей.
Td - Температура точки росы - температура, при понижении до которой содержащийся в воздухе водяной пар достигнет насыщения.
f - Относительная влажность воздуха - влажноcть воздуха, измеренная на высоте 2 м над землей.
Te - Эффективная температура - температура, которую ощущает одетый по сезону человек в тени. Характеристика душности погоды. При расчете учитывается влияние влажности воздуха и скорости ветра на теплоощущения человека.
Tes - Эффективная температура на солнце - температура, которую ощущает человек, с поправкой на солнечный нагрев. Характеристика знойности погоды. Зависит от высоты солнца над горизонтом, облачности и скорости ветра. Ночью, в пасмурную погоду, а также при ветре 12 м/с и более поправка равна нулю.
P - Атмосферное давление - приведенное к уровню моря атмосферное давление.
Po - Атмосферное давление - измеренное на уровне метеостанции атмосферное давление.
Tmin - Минимальная температура - минимум температуры воздуха на высоте 2 м над землей.
Tmax - Максимальная температура - максимум температуры воздуха на высоте 2 м над землей.
R - Количество осадков - Количество выпавших осадков за период времени, мм. При наведении курсора мыши на число - период времени, за который выпало указанное количество осадков.
R24 - Количество осадков - Количество выпавших осадков за 24 часа, мм.
S - Снежный покров - Высота снежного покрова, см. При наведении курсора мыши на число - состояние снежного покрова и степень покрытия местности в баллах.